Location: Newark
(46.2358°N, 112.1211°W)
Time: 09:23:29
(UTC+00:00)

DELFI C3 - Pass Details

Date: 08 July 2020
Orbit: 533 x 552 km, 97.4° (Epoch: 12 August)

Event Time Altitude Azimuth Distance (km) Brightness Sun altitude
Rises 04:15:55 0° 203° (SSW) 2,712 ? -8.1°
Reaches altitude 10° 04:18:31 10° 221° (SW) 1,826 ? -8.4°
Maximum altitude 04:21:23 19° 268° (W) 1,346 ? -8.7°
Drops below altitude 10° 04:24:17 10° 315° (NW) 1,840 ? -9.1°
Sets 04:26:56 0° 333° (NNW) 2,741 ? -9.4°
